Flag for U.S.A. Weather past 2 weeks in Irvine, California, U.S.A.

58 °F

Light rain. Fog.

Feels Like: 57 °F
Forecast: 49 / 64 °F
Wind: 6 mph from North

Location: John Wayne Airport-Orange County Airport

Current Time: Nov 25, 2015 at 2:19:33 AM

Latest Report: Nov 25, 2015 at 1:53 AM

Visibility: 5 mi

Pressure: 29.86 "Hg

Humidity: 90%

Dew point: 55 °F

Location of IrvineLocation

Historic Weather in Irvine — Graph


Irvine temperature yesterday

Maximum temperature yesterday: 67 °F (at 11:53 AM)
Minimum temperature yesterday: 52 °F (at 5:53 AM)
Average temperature yesterday: 60 °F

Past Weeks' High & Low Weather Summary

High87 °F (Nov 21, 1:53 PM)90% (Nov 10, 2:53 AM)30.29 "Hg (Nov 10, 2:53 AM)
Low43 °F (Nov 17, 4:53 AM)11% (Nov 17, 11:53 AM)29.85 "Hg (Nov 25, 12:53 AM)
Average61 °F49%29.98 "Hg
* Reported Nov 10 12:53 AM — Nov 25 12:53 AM, Irvine, Weather by CustomWeather, © 2015

Note: Actual official high and low records may vary slightly from our data, if they occured in-between our weather recording intervals... More about our weather records


Irvine weather history for previous 24 hours

Time TempWeatherWind HumidityBarometerVisibility
12:53 AM
Wed, Nov 25
59 °FOvercast.No wind84%29.85 "Hg10 mi
11:53 PM
Tue, Nov 24
60 °FMostly cloudy.No wind69%29.88 "Hg10 mi
10:53 PM59 °FPassing clouds.3 mph72%29.89 "Hg10 mi
9:53 PM60 °FPassing clouds.No wind69%29.90 "Hg10 mi
8:53 PM61 °FPassing clouds.No wind67%29.90 "Hg10 mi
7:53 PM61 °FPassing clouds.5 mph67%29.90 "Hg10 mi
6:53 PM60 °FPartly cloudy.5 mph69%29.88 "Hg10 mi
5:53 PM61 °FPassing clouds.6 mph72%29.89 "Hg10 mi
4:56 PM61 °FPassing clouds.3 mph77%29.88 "Hg10 mi
3:53 PM63 °FPartly sunny.8 mph70%29.90 "Hg10 mi
2:53 PM64 °FPartly sunny.8 mph70%29.89 "Hg10 mi
1:53 PM64 °FPartly sunny.8 mph68%29.90 "Hg10 mi
12:53 PM66 °FScattered clouds.12 mph63%29.92 "Hg10 mi
11:53 AM67 °FScattered clouds.12 mph63%29.93 "Hg10 mi
10:53 AM66 °FScattered clouds.9 mph65%29.96 "Hg10 mi
9:53 AM66 °FScattered clouds.9 mph65%29.98 "Hg10 mi
8:53 AM63 °FPartly sunny.No wind63%29.97 "Hg10 mi
7:53 AM58 °FScattered clouds.No wind58%29.96 "Hg10 mi
6:53 AM54 °FScattered clouds.5 mph57%29.95 "Hg10 mi
5:53 AM52 °FPassing clouds.3 mph61%29.94 "Hg10 mi
4:53 AM54 °FClear.No wind57%29.93 "Hg10 mi
3:53 AM54 °FPassing clouds.3 mph51%29.94 "Hg10 mi
2:53 AM54 °FClear.No wind53%29.94 "Hg10 mi
Weather by CustomWeather, © 2015

See weather overviewHow to use our weather pages